This demonstration page uses our WeatherBlox Daily Observations layout. Learn more.

39.92423, -83.80882

Hourly Observations for June 9, 2019

Temp ( °F °C ) Dew Point ( °F °C ) Humidity (%) Winds ( mph kmh ) Pressure ( in mb ) Visibility ( mi km ) Precip ( " mm )
12:56 am 00:56 Mostly Cloudy 68 20 62 16.7 81 81 ESE 15 24 29.96 1015 10 16.0934 0 0
1:56 am 01:56 Cloudy 68 20 62 16.7 81 81 ESE 13 20 29.96 1015 10 16.0934 0 0
2:56 am 02:56 Partly Cloudy 68 20 62 16.7 81 81 ESE 13 20 29.95 1014 10 16.0934 0 0
3:56 am 03:56 Mostly Cloudy 67 19.4 62 16.7 84 84 ESE 14 22 29.94 1014 10 16.0934 0 0.0254
4:56 am 04:56 Partly Cloudy with Light Rain 65 18.3 63 17.2 93 93 ESE 12 19 29.95 1014 10 16.0934 0 0.0254
5:56 am 05:56 Cloudy with Light Rain 64 17.8 63 17.2 96 96 E 13 20 29.96 1015 10 16.0934 0 0.0254
6:56 am 06:56 Cloudy with Light Rain 64 17.8 62 16.7 93 93 E 13 20 29.98 1015 10 16.0934 0 0.0254
7:56 am 07:56 Cloudy 66 18.9 62 16.7 87 87 E 14 22 29.98 1015 10 16.0934 0 0.0254
8:56 am 08:56 Cloudy with Light Rain 67 19.4 62 16.7 84 84 E 14 22 29.99 1016 10 16.0934 0 0.0254
9:56 am 09:56 Cloudy with Light Rain 68 20 63 17.2 84 84 ESE 15 24 30 1016 10 16.0934 0 0.0254
10:56 am 10:56 Cloudy 70 21.1 65 18.3 84 84 ESE 13 20 29.99 1016 10 16.0934 0 0.0254
11:39 am 11:39 Cloudy with Light Rain 68 20 66 19 94 94 ESE 16 26 29.99 1016 10 16.0934 0 0.0254
11:48 am 11:48 Cloudy with Light Rain 68 20 66 19 94 94 ESE 16 26 29.99 1016 10 16.0934 0 0.0254
11:56 am 11:56 Cloudy with Light Rain 68 20 67 19.4 96 96 ESE 14 22 30 1016 10 16.0934 0 0.0254
12:04 pm 12:04 Cloudy with Light Rain 68 20 68 20 100 100 ESE 13 20 29.98 1015 10 16.0934 0 0.0254
12:56 pm 12:56 Cloudy with Light Rain 69 20.6 68 20 96 96 ESE 14 22 29.99 1016 10 16.0934 0.01 0.254
1:56 pm 13:56 Cloudy with Light Rain 70 21.1 70 21.1 100 100 SE 12 19 29.98 1015 7 11.26538 0.05 1.27
2:28 pm 14:28 Cloudy with Light Rain 72 22 72 22 100 100 SE 12 19 29.95 1014 10 16.0934 0.01 0.254
2:54 pm 14:54 Cloudy with Light Rain 73 23 70 21 89 89 SE 9 15 29.94 1014 10 16.0934 0.01 0.254
2:56 pm 14:56 Cloudy with Light Rain 73 22.8 70 21.1 90 90 ESE 10 17 29.97 1015 10 16.0934 0.01 0.254
3:56 pm 15:56 Cloudy 75 23.9 69 20.6 82 82 SE 12 19 29.96 1015 10 16.0934 0 0
4:05 pm 16:05 Cloudy 75 24 70 21 83 83 SE 13 20 29.93 1013 10 16.0934 0 0
4:43 pm 16:43 Cloudy 75 24 70 21 83 83 SE 12 19 29.93 1013 10 16.0934 0 0
4:56 pm 16:56 Cloudy 76 24.4 70 21.1 82 82 SE 14 22 29.95 1014 10 16.0934 0 0
5:16 pm 17:16 Cloudy 75 24 70 21 83 83 SSE 10 17 29.93 1013 10 16.0934 0 0
5:56 pm 17:56 Cloudy 76 24.4 70 21.1 82 82 SSE 6 9 29.95 1014 10 16.0934 0 0
6:56 pm 18:56 Cloudy with Light Rain 75 23.9 70 21.1 84 84 SE 17 28 29.95 1014 10 16.0934 0 0.0254
7:31 pm 19:31 Cloudy 73 23 70 21 89 89 SE 7 11 29.92 1013 10 16.0934 0 0.0254
7:56 pm 19:56 Cloudy 74 23.3 71 21.7 91 91 ESE 5 7 29.95 1014 10 16.0934 0 0.0254
8:56 pm 20:56 Cloudy 73 22.8 70 21.1 90 90 ESE 7 11 29.95 1014 10 16.0934 0 0
9:56 pm 21:56 Cloudy 73 22.8 69 20.6 87 87 ESE 8 13 29.96 1014 10 16.0934 0 0
10:56 pm 22:56 Cloudy 72 22.2 69 20.6 91 91 ESE 10 17 29.95 1014 10 16.0934 0 0
11:56 pm 23:56 Mostly Cloudy 71 21.7 68 20 90 90 SE 12 19 29.94 1014 10 16.0934 0 0

Powered by AerisWeather